Regional Weather Roundup
Issued by NWS Green Bay, WI

Home | Current Version | Previous Version | Graphics & Text | Print | Product List | Glossary Off
Versions: 1 2 3 4 5 6 7 8 9 10 11 12 13 14 15 16 17 18 19 20 21 22 23 24 25 26 27 28 29 30 31 32 33 34 35 36 37 38 39 40 41 42 43 44 45 46 47 48 49 50

000
ASUS43 KGRB 261411
RWRGRB

NORTH-CENTRAL AND NORTHEAST WISCONSIN REGIONAL WEATHER ROUNDUP
NATIONAL WEATHER SERVICE GREEN BAY WI
900 AM CDT TUE JUL 26 2016

WIZ005-009-010>012-018-019-261500-
NORTH CENTRAL WISCONSIN

CITY           SKY/WX    TMP DP  RH WIND       PRES   REMARKS
IRONWOOD       MOSUNNY   73  68  83 W5        30.01F
MANITOWISH WTR PTSUNNY   72  67  87 W6        30.07R
ARBOR VITAE    MOSUNNY   77  68  74 W5        30.07S
EAGLE RIVER    SUNNY     74  64  69 W6        30.06S
LAND O LAKES   MOSUNNY   75  65  70 W6        30.07R
RHINELANDER    SUNNY     75  64  68 W9        30.08F
PHILLIPS       CLOUDY    72  67  84 CALM      30.07R
ANTIGO         SUNNY     74  65  75 CALM      30.09S
TOMAHAWK       SUNNY     75  65  71 CALM      30.08S
MERRILL        SUNNY     75  67  76 W5        30.08S
$$

WIZ013-073-261500-
NORTHEAST WISCONSIN

CITY           SKY/WX    TMP DP  RH WIND       PRES   REMARKS
IRON MOUNTAIN  SUNNY     75  63  66 W3        30.03F
MARINETTE      SUNNY    N/A N/A N/A NW5       30.04F
OCONTO         SUNNY     75  67  75 W5        30.04S
$$

WIZ017-030-035>037-045-261500-
CENTRAL WISCONSIN

CITY           SKY/WX    TMP DP  RH WIND       PRES   REMARKS
MEDFORD        SUNNY     74  69  85 SW5       30.08F
WAUSAU         SUNNY     76  64  66 VRB3      30.06F
MOSINEE        SUNNY     75  64  69 W6        30.09F
MARSHFIELD     SUNNY     77  64  64 W5        30.08S
WISC RAPIDS    SUNNY     78  64  61 VRB3      30.09F
STEVENS POINT  SUNNY     75  63  66 W3        30.09S
WAUPACA        SUNNY     79  65  61 CALM      30.08S
SHAWANO        SUNNY     77  66  68 W3        30.06F
CLINTONVILLE   SUNNY     75  63  64 CALM      30.06S
WAUTOMA        SUNNY     77  67  71 W3        30.08S
$$

WIZ038-039-048-051-261500-
FOX VALLEY

CITY           SKY/WX    TMP DP  RH WIND       PRES   REMARKS
NWS GREEN BAY  SUNNY     76  69  79 W5        30.06S
APPLETON       MOSUNNY   73  63  68 CALM      30.06S
OSHKOSH        SUNNY     75  65  70 CALM      30.07S
FOND DU LAC    SUNNY     76  66  71 CALM      30.08S
$$

WIZ022-050-052-261500-
EAST CENTRAL WISCONSIN

CITY           SKY/WX    TMP DP  RH WIND       PRES   REMARKS
EPHRAIM        FAIR      75  66  75 W5        30.03F
WASHINGTON ISL NOT AVBL
STURGEON BAY   SUNNY     77  67  71 W7        30.05F
MANITOWOC      SUNNY     77  64  64 W5        30.07S
SHEBOYGAN      SUNNY     78  65  63 NW5       30.07S
$$

LMZ563-521-522-541>543-261500-
LAKESHORE

STATION/POSITION TIME  TEMP    WIND        PRES    VSBY  WAVE
                       AIR SEA DIR/SP/G                  HT/PER
                 (UTC) (F)     (DEG/KT/KT) (MB)    (MI)  (FT/S)
SHEBOYGAN LKSHOR 1400   76     360/  4/  4 1018.1S
KEWAUNEE LKSHORE 1300   73     310/  3/  6 1017.2R
ALGOMA MARINA    1313             CALM       N/A
NORTHPORT PIER   1300   75     260/  4/  8 1016.9R
N MID LAKE BUOY  1350   70 70  220/  6/  6 1016.1F         1
S GREEN BAY BUOY 1300   72 73  260/  6/  8   N/A
SISTER BAY LKSHO 1321   82     270/  7/  8   N/A
CHAMBERS ISLAND  1300   75     210/  2/  6 1016.9S
MENOMINEE LKSHOR 1300   73     270/  5/  7 1016.3R
$$



USA.gov is the U.S. government's official web portal to all federal, state and local government web resources and services.